Location: Taupo
(38.6830°S, 176.0830°E)
Time: 05:37:08
(UTC+13:00)

Cosmos 841 Rocket - Pass Details

Date: 24 January 2019
Orbit: 746 x 773 km, 74.0° (Epoch: 16 October)

Event Time Altitude Azimuth Distance (km) Brightness Sun altitude
Rises 22:52:35 0° 206° (SSW) 3,284 8.2 -21.6°
Reaches altitude 10° 22:55:05 10° 211° (SSW) 2,349 7.1 -21.9°
Maximum altitude 23:00:08 45° 282° (WNW) 1,061 4.3 -22.6°
Enters shadow 23:02:17 29° 334° (NNW) 1,382 4.6 -22.8°
